Weather History for Medicine Lodge, KS

Change the Weather History Date:

Monday, October 15, 2012

  Actual Average Record
Temperature  
Mean Temperature 68 °F 59 °F  
Max Temperature 88 °F 72 °F 92 °F (1958)
Min Temperature 47 °F 47 °F 29 °F (1978)
Degree Days  
Heating Degree Days 0 7  
Month to date heating degree days 119 79  
Since 1 July heating degree days 131 113  
Cooling Degree Days 3 1  
Month to date cooling degree days 16 31  
Year to date cooling degree days 2228 1762  
Growing Degree Days 17 (Base 50)    
Moisture  
Dew Point 39 °F    
Average Humidity 44    
Maximum Humidity 71    
Minimum Humidity 17    
Precipitation  
Precipitation 0.00 in 0.12 in 2.10 in (1906)
Month to date precipitation 0.07 1.43  
Year to date precipitation 16.94 23.88  
Snow  
Snow 0.00 in 0.00 in - ()
Month to date snowfall 0.0 0.0  
Since 1 July snowfall 0.0 0.0  
Since 1 September snowfall 0.0 0.0  
Snow Depth -    
Sea Level Pressure  
Sea Level Pressure 29.92 in    
Wind  
Wind Speed 8 mph (SSW)    
Max Wind Speed 22 mph    
Max Gust Speed 32 mph    
T = Trace of Precipitation, MM = Missing Value Source: NWS Daily Summary

Daily Weather History Graph

Daily Weather History Graph

Search for Another Location

Airport:

Trip Planner

Search our weather history database for the weather conditions in past years. The results will help you decide how hot, cold, wet, or windy it might be!

Date:

Astronomy

Oct. 15, 2012 Rise Set
Actual Time 7:42 AM CDT 6:56 PM CDT
Civil Twilight 7:16 AM CDT 7:22 PM CDT
Nautical Twilight 6:46 AM CDT 7:52 PM CDT
Astronomical Twilight 6:15 AM CDT 8:23 PM CDT
Moon 7:53 AM CDT (10/15) 6:59 PM CDT (10/15)
Length of Visible Light 12h 06m
Length of Day
11h 13m
Waxing Crescent, 0% of the Moon is Illuminated
Oct 15
Waxing Crescent
Oct 21
First Quarter
Oct 29
Full
Nov 6
Last Quarter
Nov 13
New

Hourly Weather History & Observations

Time (CDT) Temp. Dew Point Humidity Pressure Visibility Wind Dir Wind Speed Gust Speed Precip Events Conditions
12:56 AM 48.9 °F 39.0 °F 69% 30.06 in - Calm Calm - N/A   Unknown
1:56 AM 46.9 °F 37.9 °F 71% 30.06 in - Calm Calm - N/A   Unknown
2:56 AM 50.0 °F 39.0 °F 66% 30.04 in - North 3.5 mph - N/A   Unknown
3:56 AM 48.0 °F 37.9 °F 68% 30.03 in - North 4.6 mph - N/A   Unknown
4:56 AM 51.1 °F 37.9 °F 61% 30.02 in - North 4.6 mph - N/A   Unknown
5:56 AM 48.9 °F 37.0 °F 64% 30.03 in - North 4.6 mph - N/A   Unknown
6:56 AM 53.1 °F 37.9 °F 57% 30.02 in - North 3.5 mph - N/A   Unknown
7:56 AM 54.0 °F 37.9 °F 55% 30.02 in - Calm Calm - N/A   Unknown
8:56 AM 57.0 °F 41.0 °F 55% 30.02 in - Calm Calm - N/A   Unknown
9:56 AM 66.0 °F 42.1 °F 42% 30.02 in - Calm Calm - N/A   Unknown
10:56 AM 77.0 °F 39.9 °F 26% 30.00 in - SSW 6.9 mph - N/A   Unknown
11:56 AM 82.0 °F 39.0 °F 22% 29.96 in - WSW 17.3 mph 27.6 mph N/A   Unknown
12:56 PM 84.9 °F 39.0 °F 20% 29.92 in - WSW 16.1 mph 24.2 mph N/A   Unknown
1:56 PM 86.0 °F 39.0 °F 19% 29.88 in - SSW 13.8 mph 24.2 mph N/A   Unknown
2:56 PM 88.0 °F 39.9 °F 18% 29.83 in - SSW 17.3 mph 24.2 mph N/A   Unknown
3:56 PM 88.0 °F 39.0 °F 18% 29.82 in - SSW 15.0 mph 23.0 mph N/A   Unknown
4:56 PM 88.0 °F 39.0 °F 18% 29.79 in - SSW 11.5 mph - N/A   Unknown
5:56 PM 87.1 °F 37.9 °F 18% 29.78 in - SSW 9.2 mph 19.6 mph N/A   Unknown
6:56 PM 82.0 °F 39.0 °F 22% 29.78 in - South 10.4 mph - N/A   Unknown
7:56 PM 75.9 °F 39.9 °F 27% 29.79 in - South 8.1 mph - N/A   Unknown
8:56 PM 72.0 °F 39.9 °F 31% 29.79 in - South 8.1 mph - N/A   Unknown
9:56 PM 68.0 °F 39.9 °F 36% 29.79 in - South 11.5 mph - N/A   Unknown
10:56 PM 66.9 °F 41.0 °F 39% 29.78 in - South 10.4 mph - N/A   Unknown
11:56 PM 66.0 °F 41.0 °F 40% 29.77 in - South 10.4 mph - N/A   Unknown